CYGNUS OA-7 is no longer on orbit CYGNUS OA-7 is classified as:
1 42681U 17019A 17162.18597911 +.00001766 +00000-0 +30326-4 0 9995 2 42681 051.6405 068.6824 0011616 288.9143 231.8850 15.57448767008322